Location: Chiroubles
(46.1812°N, 4.6660°E)
Time: 06:42:05
(UTC+00:00)

Transit 4A - Pass Details

Date: 07 December 2020
Orbit: 864 x 980 km, 66.8° (Epoch: 25 January)

Event Time Altitude Azimuth Distance (km) Brightness Sun altitude
Rises 05:31:09 0° 200° (SSW) 3,622 10.9 -16.4°
Reaches altitude 10° 05:33:41 10° 198° (SSW) 2,692 10.3 -16.0°
Maximum altitude 05:39:55 65° 118° (ESE) 1,069 8.5 -15.0°
Drops below altitude 10° 05:46:16 10° 38° (NE) 2,740 10.6 -13.9°
Sets 05:48:52 0° 36° (NE) 3,691 11.3 -13.5°
